DW2513 Weather Reports


Display with metric or nautical units.
time (UTC)temp
F
wind
direction
speed
MPH
gust
MPH
rain 1hr
in
rain 24hr
in
rain mn
in
humidity
%
barometer
mb
20260506190805 61 238 0.0 0.0 0.07 0.27 0.21 85 1001.1
20260506190306 60 238 0.0 0.0 0.07 0.27 0.21 85 1001.1
20260506185306 60 171 0.0 0.0 0.07 0.26 0.20 85 1001.1
20260506183304 60 171 0.0 0.0 0.08 0.24 0.18 84 1001.1
20260506182306 60 171 0.0 2.0 0.07 0.22 0.16 84 1002.0
20260506181805 60 171 0.0 2.0 0.07 0.21 0.15 84 1002.0
20260506175805 60 171 0.0 2.0 0.08 0.20 0.14 83 1002.0
20260506175306 60 171 0.0 0.0 0.08 0.19 0.13 83 1002.0
20260506174304 60 188 0.0 3.0 0.08 0.18 0.12 83 1002.3
20260506172306 60 225 0.0 1.0 0.07 0.15 0.09 82 1002.6
20260506171304 61 225 0.0 0.0 0.06 0.13 0.07 81 1002.6
20260506170305 61 118 0.0 0.0 0.06 0.13 0.07 81 1002.6
20260506163805 61 118 0.0 0.0 0.02 0.09 0.03 79 1002.6
20260506163304 61 118 0.0 0.0 0.02 0.09 0.03 78 1002.6
20260506162307 61 101 0.0 0.0 0.02 0.08 0.02 77 1002.7
20260506160304 61 101 0.0 0.0 0.01 0.07 0.01 75 1002.7
20260506155306 61 101 0.0 0.0 0.01 0.07 0.01 75 1003.9
20260506153304 62 101 0.0 0.0 0.01 0.07 0.01 74 1003.9
20260506152804 62 101 0.0 0.0 0.01 0.07 0.01 72 1003.9
20260506152306 62 101 0.0 0.0 0.00 0.06 0.00 71 1003.9
20260506151804 62 101 0.0 0.0 0.00 0.06 0.00 71 1003.9
20260506151304 62 101 0.0 0.0 0.00 0.06 0.00 70 1003.9
20260506150805 62 101 0.0 0.0 0.00 0.06 0.00 69 1003.9
20260506145804 62 103 0.0 0.0 0.00 0.06 0.00 68 1003.7
20260506143304 62 209 0.0 0.0 0.00 0.06 0.00 67 1003.7
20260506142804 62 208 0.0 0.0 0.00 0.06 0.00 67 1003.7
20260506141804 61 208 0.0 0.0 0.00 0.06 0.00 68 1003.7
20260506141304 61 205 0.0 0.0 0.00 0.06 0.00 68 1003.7
20260506140304 61 330 0.0 2.0 0.00 0.06 0.00 69 1003.7
20260506135306 61 167 0.0 3.0 0.00 0.06 0.00 69 1004.1
20260506134804 60 129 0.0 0.0 0.00 0.06 0.00 69 1004.1
20260506133805 60 129 0.0 0.0 0.00 0.06 0.00 70 1004.1
20260506131804 59 130 0.0 1.0 0.00 0.06 0.00 72 1004.1
20260506130804 59 258 0.0 1.0 0.00 0.06 0.00 72 1004.1
20260506125805 59 269 0.0 0.0 0.00 0.06 0.00 72 1004.1
20260506125306 59 269 0.0 0.0 0.00 0.06 0.00 72 1004.1
20260506123805 58 100 1.0 2.0 0.00 0.06 0.00 73 1004.1
20260506122306 58 205 0.0 0.0 0.00 0.06 0.00 73 1004.2
20260506121804 58 317 0.0 2.0 0.00 0.06 0.00 74 1004.2
20260506120304 57 26 0.0 0.0 0.00 0.06 0.00 74 1004.2
20260506115804 57 25 0.0 2.0 0.00 0.06 0.00 75 1004.2
20260506115307 57 26 0.0 0.0 0.00 0.06 0.00 75 1004.2
20260506113804 56 44 0.0 0.0 0.00 0.06 0.00 78 1004.2
20260506112306 56 42 0.0 0.0 0.00 0.06 0.00 78 1004.2
20260506111304 56 42 0.0 0.0 0.00 0.06 0.00 78 1004.2
20260506110305 55 42 0.0 0.0 0.00 0.06 0.00 78 1004.2
20260506103804 54 42 0.0 0.0 0.00 0.06 0.00 78 1004.2
20260506101804 54 42 0.0 0.0 0.00 0.06 0.00 76 1004.2
20260506101304 55 42 0.0 0.0 0.00 0.06 0.00 76 1004.2
20260506100805 55 42 0.0 0.0 0.00 0.06 0.00 76 1004.2
20260506100304 55 42 0.0 0.0 0.00 0.06 0.00 75 1004.2
20260506095804 55 42 0.0 0.0 0.00 0.06 0.00 75 1004.2
20260506094305 55 42 0.0 0.0 0.00 0.06 0.00 74 1004.2
20260506093805 55 42 0.0 0.0 0.00 0.06 0.00 74 1004.2
20260506091804 56 42 0.0 0.0 0.00 0.06 0.00 72 1004.2
20260506091304 56 42 0.0 0.0 0.00 0.06 0.00 72 1004.2
20260506090804 56 42 0.0 0.0 0.00 0.06 0.00 72 1004.2
20260506090304 56 42 0.0 0.0 0.00 0.06 0.00 71 1004.2
20260506084805 56 42 0.0 0.0 0.00 0.06 0.00 71 1004.2
20260506084304 56 42 0.0 0.0 0.00 0.06 0.00 71 1004.2
20260506083805 57 42 0.0 0.0 0.00 0.06 0.00 71 1004.4
20260506081805 57 42 0.0 0.0 0.00 0.06 0.00 72 1004.3
20260506080804 57 42 0.0 0.0 0.00 0.06 0.00 72 1004.3
20260506080304 57 42 0.0 0.0 0.00 0.06 0.00 72 1004.3
20260506071805 58 42 0.0 0.0 0.00 0.06 0.00 70 1004.3
20260506070305 59 42 0.0 2.0 0.00 0.06 0.00 68 1004.3
20260506062305 59 43 0.0 0.0 0.00 0.06 0.00 69 1004.3
20260506060304 60 289 0.0 0.0 0.00 0.06 0.00 69 1004.3
20260506050804 60 305 0.0 0.0 0.00 0.06 0.00 73 1004.4
20260506050305 60 305 0.0 0.0 0.00 0.06 0.00 74 1004.4
20260506044804 60 86 0.0 0.0 0.00 0.06 0.00 74 1004.0
20260506042804 60 86 0.0 0.0 0.00 0.06 0.00 74 1004.0
20260506041304 61 86 0.0 0.0 0.00 0.06 0.00 74 1004.0
20260506040821 60 86 0.0 0.0 0.00 0.06 0.00 74 1004.0
20260506040305 60 86 0.0 0.0 0.00 0.06 0.00 75 1004.0
20260506035804 60 86 0.0 0.0 0.00 0.06 0.06 76 1004.0
20260506034804 60 86 0.0 0.0 0.00 0.06 0.06 76 1004.1
20260506032306 60 86 0.0 0.0 0.00 0.06 0.06 75 1004.1
20260506031804 60 86 0.0 0.0 0.00 0.06 0.06 75 1004.1
20260506030304 61 86 0.0 0.0 0.00 0.06 0.06 74 1004.0
20260506025804 61 86 0.0 0.0 0.00 0.06 0.06 74 1004.0
20260506025306 61 86 0.0 0.0 0.00 0.06 0.06 74 1004.0
20260506024804 61 86 0.0 0.0 0.00 0.06 0.06 74 1003.9
20260506023805 61 86 0.0 0.0 0.00 0.06 0.06 74 1003.9
20260506023305 61 86 0.0 0.0 0.00 0.06 0.06 73 1003.9
20260506022805 61 86 0.0 0.0 0.00 0.06 0.06 73 1003.9
20260506021804 61 86 0.0 0.0 0.00 0.06 0.06 74 1003.8
20260506020804 61 86 0.0 0.0 0.00 0.06 0.06 74 1003.8
20260506015804 61 86 0.0 0.0 0.00 0.06 0.06 74 1003.8
20260506015306 61 86 0.0 0.0 0.00 0.06 0.06 74 1003.8
20260506013305 61 86 0.0 0.0 0.00 0.06 0.06 73 1003.6
20260506012804 61 86 0.0 0.0 0.00 0.06 0.06 73 1003.6
20260506011804 61 86 0.0 0.0 0.00 0.06 0.06 74 1003.6
20260506011306 61 86 0.0 0.0 0.00 0.06 0.06 74 1003.6
20260506010804 62 86 0.0 0.0 0.00 0.06 0.06 74 1003.6
20260506005306 62 86 0.0 0.0 0.00 0.06 0.06 75 1003.2
20260506004304 62 86 0.0 0.0 0.00 0.06 0.06 75 1003.2
20260506003305 62 86 0.0 0.0 0.00 0.06 0.06 75 1003.1
20260506002805 62 86 0.0 0.0 0.00 0.06 0.06 76 1003.1
20260506002306 62 86 0.0 0.0 0.00 0.06 0.06 76 1003.1
20260506001805 62 86 0.0 0.0 0.00 0.06 0.06 76 1003.1
20260506001305 62 86 0.0 0.0 0.00 0.06 0.06 76 1003.1
20260506000805 61 86 0.0 0.0 0.00 0.06 0.06 77 1003.1
20260505235804 61 86 0.0 0.0 0.00 0.06 0.06 77 1003.1
20260505233805 61 86 0.0 0.0 0.00 0.06 0.06 77 1002.0
20260505233305 61 86 0.0 0.0 0.00 0.06 0.06 77 1002.0
20260505232805 61 86 0.0 0.0 0.00 0.06 0.06 78 1002.0
20260505232305 61 86 0.0 0.0 0.00 0.06 0.06 78 1002.0
20260505231804 61 86 0.0 0.0 0.00 0.06 0.06 78 1002.0
20260505231304 61 86 0.0 0.0 0.00 0.06 0.06 79 1002.0
20260505230304 61 86 0.0 0.0 0.00 0.06 0.06 80 1002.0
20260505223805 62 86 0.0 0.0 0.00 0.06 0.06 80 1002.0
20260505222804 61 86 0.0 3.0 0.01 0.06 0.06 80 1002.1
20260505222306 61 330 0.0 0.0 0.02 0.06 0.06 80 1002.1
20260505221805 61 329 0.0 0.0 0.02 0.06 0.06 79 1001.5
20260505220805 61 329 0.0 1.0 0.03 0.06 0.06 78 1001.0
20260505215804 62 342 0.0 0.0 0.06 0.06 0.06 78 1001.0
20260505212306 62 71 0.0 0.0 0.04 0.04 0.04 74 1001.0
20260505210805 65 189 2.0 12.0 0.03 0.03 0.03 66 1000.9
20260505205305 79 152 6.0 13.0 0.00 0.00 0.00 28 998.8
20260505203304 81 109 0.0 3.0 0.00 0.00 0.00 23 998.8
20260505202805 81 109 2.0 9.0 0.00 0.00 0.00 23 998.8
20260505202307 81 105 2.0 6.0 0.00 0.00 0.00 23 998.8
20260505201805 81 114 2.0 10.0 0.00 0.00 0.00 24 998.8
20260505200305 81 91 2.0 7.0 0.00 0.00 0.00 23 998.8
20260505195305 82 187 2.0 10.0 0.00 0.00 0.00 22 998.8
20260505194804 82 214 2.0 7.0 0.00 0.00 0.00 22 998.8
20260505193805 82 188 1.0 7.0 0.00 0.00 0.00 22 998.8
20260505192805 81 167 3.0 12.0 0.00 0.00 0.00 23 998.9
20260505191805 82 130 1.0 6.0 0.00 0.00 0.00 22 998.9